Satellite: HRBE Catalog number: 37855 Epoch time: 13094.48721403 Element set: 460 Inclination: 101.7207 deg RA of node: 274.5432 deg Eccentricity: 0.0239291 Arg of perigee: 237.7746 deg Mean anomaly: 183.2411 deg Mean motion: 14.83025132 rev/day Decay rate: 7.366e-05 rev/day^2 Epoch rev: 7752 Checksum: 291
Satellite: RS-39 Catalog number: 38051 Epoch time: 13094.79852167 Element set: 317 Inclination: 051.6361 deg RA of node: 204.2099 deg Eccentricity: 0.0012263 Arg of perigee: 001.4540 deg Mean anomaly: 137.1264 deg Mean motion: 15.30366185 rev/day Decay rate: 1.3515e-04 rev/day^2 Epoch rev: 6653 Checksum: 283
Satellite: E-STAR Catalog number: 38079 Epoch time: 13094.73565364 Element set: 21 Inclination: 069.4879 deg RA of node: 357.7646 deg Eccentricity: 0.0652886 Arg of perigee: 233.5844 deg Mean anomaly: 120.3263 deg Mean motion: 14.37693584 rev/day Decay rate: 2.2840e-04 rev/day^2 Epoch rev: 5915 Checksum: 342
Satellite: GOLIAT Catalog number: 38085 Epoch time: 13094.71341420 Element set: 946 Inclination: 069.4890 deg RA of node: 359.4647 deg Eccentricity: 0.0660741 Arg of perigee: 234.5127 deg Mean anomaly: 119.2762 deg Mean motion: 14.36012154 rev/day Decay rate: 2.3972e-04 rev/day^2 Epoch rev: 5910 Checksum: 304
Satellite: HORYU-2 Catalog number: 38340 Epoch time: 13093.88438327 Element set: 445 Inclination: 098.2117 deg RA of node: 040.9343 deg Eccentricity: 0.0013368 Arg of perigee: 124.3475 deg Mean anomaly: 235.9054 deg Mean motion: 14.70723446 rev/day Decay rate: 1.084e-05 rev/day^2 Epoch rev: 4719 Checksum: 299
Satellite: RS-40 Catalog number: 38736 Epoch time: 13093.77511264 Element set: 229 Inclination: 082.4805 deg RA of node: 201.5094 deg Eccentricity: 0.0021714 Arg of perigee: 122.8101 deg Mean anomaly: 237.5078 deg Mean motion: 12.43229749 rev/day Decay rate: 1.0e-07 rev/day^2 Epoch rev: 3100 Checksum: 262
Satellite: PROITERES Catalog number: 38756 Epoch time: 13094.67426296 Element set: 656 Inclination: 098.2568 deg RA of node: 170.3566 deg Eccentricity: 0.0012372 Arg of perigee: 346.6295 deg Mean anomaly: 013.4587 deg Mean motion: 14.74127071 rev/day Decay rate: 5.19e-06 rev/day^2 Epoch rev: 3056 Checksum: 321
Satellite: RAIKO Catalog number: 38852 Epoch time: 13094.15920354 Element set: 182 Inclination: 051.6397 deg RA of node: 107.5252 deg Eccentricity: 0.0015577 Arg of perigee: 079.2034 deg Mean anomaly: 281.0714 deg Mean motion: 15.65719334 rev/day Decay rate: 7.4188e-04 rev/day^2 Epoch rev: 2822 Checksum: 302
Satellite: FITSAT 1 Catalog number: 38853 Epoch time: 13094.24693813 Element set: 184 Inclination: 051.6414 deg RA of node: 105.1314 deg Eccentricity: 0.0012554 Arg of perigee: 086.5888 deg Mean anomaly: 273.6545 deg Mean motion: 15.69512865 rev/day Decay rate: 1.05207e-03 rev/day^2 Epoch rev: 2831 Checksum: 305
Satellite: TechEdSat Catalog number: 38854 Epoch time: 13094.44002818 Element set: 215 Inclination: 051.6347 deg RA of node: 098.8422 deg Eccentricity: 0.0012090 Arg of perigee: 084.3114 deg Mean anomaly: 275.9267 deg Mean motion: 15.82154761 rev/day Decay rate: 2.78720e-03 rev/day^2 Epoch rev: 2841 Checksum: 297
Satellite: F 1 Catalog number: 38855 Epoch time: 13094.24243190 Element set: 212 Inclination: 051.6332 deg RA of node: 100.5175 deg Eccentricity: 0.0011896 Arg of perigee: 083.5349 deg Mean anomaly: 276.7007 deg Mean motion: 15.80235887 rev/day Decay rate: 2.47368e-03 rev/day^2 Epoch rev: 2826 Checksum: 303
Satellite: WeWish Catalog number: 38856 Epoch time: 13069.98095549 Element set: 248 Inclination: 051.6166 deg RA of node: 215.0521 deg Eccentricity: 0.0008325 Arg of perigee: 316.0438 deg Mean anomaly: 044.8765 deg Mean motion: 16.41348316 rev/day Decay rate: 1.6701328e-01 rev/day^2 Epoch rev: 2458 Checksum: 318
/EX